Theta_e
287 287 287 289 288 288 288 288 288 289 290 290 287 289 290 291 285 283 289 291 290 292 304 312 314 311 310 312 313 313 314 315 315 315 314 314 315 316 317 319 321 323 326 328 330 333 334 335 340 342 342 341 342 343 345 346 347 347 348 347 346 346 346 346 346 348 348 348 348 348 348 347 346 346 345 344 344 343 343 345 348 348 348 346 344 345 348
287 287 288 289 287 287 287 288 288 289 290 290 289 291 293 293 289 290 291 291 293 297 309 312 312 314 312 312 314 313 312 313 314 314 314 313 314 314 315 317 318 320 322 325 327 330 332 334 335 338 341 343 343 343 344 346 348 349 349 348 348 347 347 347 348 348 349 349 349 348 348 347 346 346 346 345 344 343 342 342 344 347 348 348 346 344 345
285 287 290 288 287 287 285 286 288 289 290 290 294 294 296 300 294 296 296 293 293 305 310 311 313 313 313 312 310 310 311 311 312 312 312 313 314 314 315 316 317 318 321 323 325 327 329 333 335 336 338 341 345 344 345 347 348 350 351 350 349 349 348 349 349 350 349 349 349 348 348 347 347 347 346 345 344 343 343 342 342 344 347 346 346 346 345
281 285 286 287 287 287 285 284 286 287 289 288 291 291 301 300 297 298 295 293 298 306 310 310 311 311 310 309 309 310 310 310 311 311 311 313 313 313 314 316 317 317 319 321 323 325 327 330 334 336 337 340 343 346 346 347 349 351 352 351 350 350 351 351 351 351 351 350 350 349 348 348 347 347 347 346 345 344 343 342 343 343 344 345 346 346 346
278 284 287 286 285 282 280 284 286 289 291 292 294 295 305 303 302 298 294 297 304 305 309 307 308 309 309 309 310 309 310 310 310 310 311 311 313 314 314 315 317 316 317 320 322 324 326 327 330 333 336 337 340 342 343 345 351 351 351 352 352 351 352 352 352 352 352 351 351 350 350 349 349 348 347 346 345 345 344 344 344 343 343 344 345 346 345
278 283 285 286 280 275 277 287 291 292 292 293 295 299 301 302 304 302 305 304 305 305 305 306 306 307 308 311 312 314 312 309 309 310 311 311 312 314 314 314 316 317 318 319 321 324 325 327 329 330 334 336 339 344 347 346 346 349 351 352 352 352 353 353 353 353 353 352 351 351 351 351 350 349 348 347 347 346 346 346 344 344 344 343 344 345 345
278 281 284 280 274 276 286 291 293 296 297 296 295 301 302 302 302 303 304 305 305 305 306 306 308 309 312 314 313 314 315 313 311 310 311 310 312 313 314 314 315 316 318 318 320 323 325 327 328 329 330 333 336 339 342 346 346 345 346 348 351 352 353 353 354 354 353 353 352 352 352 352 351 350 349 348 348 347 347 346 345 344 344 344 344 345 345
280 279 277 271 274 283 291 292 297 300 298 296 295 295 302 302 301 302 301 303 306 306 306 307 308 311 312 314 315 315 316 316 314 312 311 311 312 312 314 314 315 316 317 319 320 322 327 326 327 328 328 331 333 336 340 341 345 346 345 345 345 348 352 354 354 354 354 354 353 353 353 352 351 350 350 349 348 348 348 347 347 347 347 346 345 345 346
279 277 276 279 284 285 287 290 293 294 291 293 291 286 292 301 301 301 301 303 306 307 308 307 307 309 312 309 311 316 316 316 316 314 314 313 314 314 315 316 316 317 319 320 321 325 325 326 326 327 328 330 331 334 336 338 340 343 346 344 344 346 349 352 356 356 356 355 354 354 354 353 352 352 351 350 350 350 349 348 347 347 347 347 347 346 346
282 280 277 277 275 276 280 291 296 299 299 298 299 292 290 301 300 302 302 302 305 306 308 307 307 307 308 302 305 313 316 316 315 317 316 316 316 315 315 317 316 317 319 321 323 323 324 325 326 328 328 329 330 332 334 335 336 338 341 344 347 348 347 348 353 357 357 356 355 355 354 353 353 353 353 353 352 352 349 348 348 348 348 348 348 348 347
281 280 277 275 272 277 285 290 295 297 298 298 300 292 286 300 298 300 302 303 305 305 306 307 306 302 298 299 304 312 314 317 316 316 316 317 316 316 316 316 316 316 317 319 322 322 322 323 325 327 329 329 330 331 333 333 335 335 337 340 343 345 348 351 352 352 357 357 357 356 355 355 355 354 353 353 353 353 352 351 350 349 349 348 348 348 348
282 279 277 275 280 279 289 294 295 297 298 299 294 281 283 296 297 299 302 304 305 305 307 308 305 301 298 299 304 310 314 316 319 318 315 315 316 317 317 317 318 319 318 319 318 319 320 321 324 325 328 329 330 331 333 334 333 334 335 337 340 342 345 348 352 353 353 356 357 357 356 356 356 355 355 355 354 353 352 352 350 350 350 349 348 348 348
285 285 278 279 282 290 294 294 296 297 300 295 281 278 288 295 297 301 303 305 306 307 306 306 303 305 305 306 308 311 312 314 314 317 318 316 317 317 316 316 321 318 316 316 317 317 318 321 324 325 326 327 328 330 330 330 330 331 333 336 339 342 345 348 350 353 355 356 357 358 358 357 357 357 356 355 354 353 352 352 351 350 349 349 349 348 349
279 281 281 280 281 288 294 295 296 298 294 282 279 290 295 296 298 300 302 304 305 305 304 304 305 306 308 311 310 309 309 312 313 313 315 316 316 317 318 319 319 317 315 315 317 317 317 319 322 325 325 324 326 326 327 327 328 330 332 334 337 341 345 348 352 354 355 356 358 358 359 358 357 356 356 356 355 354 353 352 350 350 349 348 348 348 349
282 280 280 277 275 285 295 295 293 297 286 285 292 294 296 298 297 297 299 300 300 301 300 302 303 304 305 305 307 308 308 309 312 313 313 314 315 314 314 315 318 318 314 313 316 316 316 318 320 323 323 322 323 325 324 325 328 329 331 333 336 340 344 348 353 356 356 356 357 359 359 359 357 356 356 355 355 354 352 351 350 349 349 349 348 348 348
279 278 277 277 283 289 296 293 287 291 293 295 295 294 293 296 296 296 296 297 299 299 299 299 300 302 303 304 306 306 307 308 310 313 314 315 316 316 316 316 318 318 314 315 316 316 316 317 319 322 322 320 322 323 322 325 327 329 330 332 334 337 339 342 345 350 355 358 358 358 358 358 357 356 355 355 354 354 353 351 350 349 349 349 348 347 347
284 281 283 288 293 294 294 295 293 294 296 298 297 296 295 294 295 297 296 297 299 300 300 300 300 300 302 303 305 304 306 308 309 310 311 312 315 315 314 315 319 318 315 314 316 316 315 316 318 320 322 320 320 320 322 325 327 327 328 330 330 332 334 337 340 344 348 354 357 357 358 358 357 356 355 355 353 353 353 351 350 349 349 349 348 347 347
290 293 294 295 294 293 294 296 296 296 297 297 298 296 295 296 297 298 297 298 299 300 301 300 300 301 302 303 304 305 306 307 308 312 312 313 314 313 314 316 318 318 315 316 316 315 314 315 317 320 320 320 318 319 323 325 326 326 326 327 328 329 331 334 337 340 343 348 354 357 357 358 358 357 356 355 354 353 353 352 351 350 349 348 348 347 347
284 280 290 291 292 293 294 294 296 298 298 297 297 296 296 297 298 299 300 300 301 302 302 301 301 301 303 303 304 305 305 306 307 308 309 310 312 312 312 314 318 317 316 316 316 315 313 314 316 319 320 320 320 321 322 323 325 325 325 325 327 328 329 331 334 339 343 349 353 355 355 357 358 358 357 356 355 353 353 352 351 350 349 348 348 347 347
283 284 288 291 293 293 294 294 293 294 295 297 298 298 299 300 301 301 301 302 302 303 302 303 302 303 304 303 303 304 304 305 306 307 308 309 310 312 312 313 317 317 315 317 316 315 314 315 316 318 319 319 320 320 322 323 324 324 324 326 326 327 328 330 333 339 345 351 353 354 354 355 356 356 357 357 355 354 353 353 351 350 350 349 348 348 347
286 288 289 290 292 292 294 296 296 296 296 297 298 299 299 301 301 302 303 304 303 304 303 304 303 303 303 304 304 304 305 305 305 306 308 309 310 310 310 312 318 315 315 317 317 316 315 316 316 318 319 319 320 319 321 322 323 323 324 326 327 327 329 331 335 341 348 351 352 352 353 354 356 357 356 356 356 356 357 357 355 354 352 351 351 351 350
281 283 286 289 285 285 289 293 295 295 298 298 298 299 299 301 302 303 303 303 304 304 304 304 304 303 304 305 305 304 305 305 306 307 307 308 309 310 310 313 315 315 318 318 316 316 316 317 317 319 319 319 319 319 320 321 322 322 324 325 327 328 330 332 335 341 347 347 348 350 351 352 354 356 347 334 346 357 356 342 336 333 333 351 354 353 352
282 287 288 290 291 290 292 294 295 297 298 298 298 298 299 301 303 304 303 303 303 304 305 306 305 305 305 305 305 305 305 306 307 308 307 308 309 310 311 313 313 314 315 318 317 316 316 318 319 319 318 318 318 319 320 320 321 322 322 325 326 327 330 331 333 336 340 343 345 348 351 352 353 353 354 350 319 322 335 340 330 321 318 322 326 333 348
289 290 291 291 291 290 293 295 296 297 299 299 299 300 301 302 303 304 304 304 304 304 305 306 307 307 307 307 306 305 305 306 307 307 308 309 309 311 313 314 314 315 316 316 315 316 316 318 318 317 317 317 317 319 319 320 321 321 322 324 324 325 326 329 333 336 340 342 345 346 349 351 352 353 353 353 353 326 317 320 322 318 316 315 316 317 322
289 292 293 294 293 294 295 296 297 299 301 302 300 300 301 302 303 304 304 304 305 304 304 305 306 308 307 307 306 305 305 306 308 309 313 316 314 315 314 314 314 316 315 314 314 315 316 317 317 317 315 316 317 318 318 320 320 320 321 323 323 324 325 328 331 335 340 342 343 344 346 349 351 352 353 352 352 352 345 318 312 310 310 313 313 313 313
295 294 294 295 296 296 297 298 298 298 299 299 300 301 303 306 304 304 304 304 304 305 305 305 306 307 308 307 306 307 307 307 311 313 312 311 311 311 310 311 314 314 315 315 316 316 315 316 315 314 314 315 316 317 318 319 319 319 320 321 323 324 325 327 329 331 333 338 343 343 344 346 350 352 353 354 354 353 352 349 344 330 319 311 308 308 308
295 296 295 294 294 295 296 295 295 297 298 300 301 301 302 302 305 304 303 303 304 305 305 305 306 307 307 308 309 309 307 308 310 311 311 311 311 312 312 312 312 314 315 315 315 317 318 315 313 313 313 314 315 316 317 318 318 319 319 320 321 325 329 329 326 326 327 329 332 339 343 343 344 347 351 352 353 352 352 351 349 349 350 347 321 307 321
296 296 296 292 291 293 294 296 297 298 300 300 301 301 301 302 302 301 300 300 301 303 304 305 305 305 305 307 307 307 308 309 309 310 310 309 311 312 312 313 312 312 314 313 313 314 314 311 311 311 312 314 315 315 317 318 318 318 319 319 320 320 320 322 322 322 323 325 327 330 335 341 343 343 346 349 351 352 347 350 351 350 349 352 350 327 309
296 297 297 298 298 298 297 296 298 298 299 300 302 300 301 300 300 300 299 300 301 302 302 303 305 306 306 307 307 306 306 307 307 308 309 310 311 311 312 314 313 314 313 313 312 310 309 309 309 309 311 313 314 315 317 317 317 318 318 318 318 318 319 319 320 320 322 323 325 328 331 335 339 341 341 342 341 340 341 343 344 344 346 344 338 337 330
296 296 297 298 299 299 297 297 297 297 298 298 299 299 300 300 299 299 299 300 301 301 302 303 304 305 306 307 308 308 308 308 309 310 311 312 311 309 311 312 312 312 310 311 311 309 308 308 308 308 310 312 314 315 316 316 316 317 317 317 317 317 317 317 318 320 320 321 323 325 330 335 339 340 339 338 339 339 339 338 339 340 341 341 336 342 343
293 294 295 296 296 296 296 296 296 296 297 297 298 298 299 299 298 298 299 300 301 301 303 303 303 304 306 307 308 308 309 309 309 310 311 311 309 309 309 309 309 309 308 309 308 307 307 307 308 309 311 313 314 314 315 315 315 316 316 315 315 315 315 316 317 318 318 321 324 327 330 335 339 339 338 337 337 337 337 338 338 337 338 340 340 340 342
294 294 294 294 293 294 295 295 295 295 296 297 296 297 298 298 298 298 299 300 301 302 303 303 303 303 305 307 308 308 309 309 310 311 311 311 311 310 309 307 308 310 309 309 307 306 306 307 307 309 311 313 313 313 314 314 314 314 313 314 313 313 314 316 316 317 319 322 323 324 328 332 337 339 339 338 338 337 336 337 337 337 337 337 338 339 341
292 291 290 291 294 293 294 294 294 294 295 296 296 298 299 299 299 300 300 301 302 302 302 302 304 304 306 307 307 307 308 310 310 310 309 309 309 310 310 309 306 307 308 307 305 305 306 306 307 310 311 312 312 313 313 313 314 313 312 311 312 312 316 314 314 315 317 319 320 320 322 324 329 336 338 337 337 337 337 336 337 337 336 337 339 341 339
293 292 292 291 293 292 292 292 293 294 295 296 296 298 298 300 300 299 300 302 302 302 302 303 304 305 305 305 305 306 306 307 308 308 307 307 307 307 307 308 307 306 308 306 305 304 306 307 308 310 311 311 311 311 311 312 314 313 311 310 311 311 312 313 313 314 315 315 316 318 319 321 323 328 334 336 337 336 335 335 336 336 337 338 340 343 330
296 295 294 294 295 294 295 294 293 295 296 295 296 297 299 300 299 299 302 301 301 301 303 304 304 304 304 304 304 304 304 304 305 307 305 305 305 305 305 305 305 306 306 304 303 303 305 306 308 310 311 309 310 309 310 312 313 311 309 310 310 311 311 313 312 311 312 312 313 314 315 316 319 322 326 333 336 336 335 335 335 336 337 338 340 336 329
296 295 296 295 295 296 297 296 296 297 297 296 296 297 298 299 300 299 299 300 302 303 303 303 304 304 303 303 303 302 302 303 304 305 305 304 304 305 305 304 303 303 302 302 302 303 305 306 311 312 308 307 308 308 309 312 313 309 308 308 308 309 310 310 310 310 311 310 310 312 313 315 316 318 322 327 334 336 336 336 335 336 337 338 337 332 330
297 297 297 296 296 296 295 296 296 296 296 295 297 298 299 299 299 299 301 301 302 302 303 303 303 302 302 303 303 303 303 303 304 304 305 306 305 304 303 303 303 302 301 299 301 304 305 307 310 310 307 305 307 307 308 312 312 308 307 306 307 307 308 307 307 307 308 308 309 309 310 310 311 312 316 322 330 336 337 337 337 336 336 335 332 330 328
297 297 296 296 296 296 296 296 298 297 297 297 297 300 300 299 299 299 299 300 301 302 303 303 302 303 303 304 303 302 302 302 303 303 304 304 304 302 301 301 302 302 301 300 303 304 305 307 309 307 305 305 305 306 307 311 311 306 305 305 306 306 306 306 305 306 306 306 308 307 307 308 307 308 311 314 319 331 336 337 337 336 334 331 330 329 329
296 296 296 297 296 296 296 297 298 297 297 296 296 295 298 302 302 301 300 300 301 303 302 302 303 302 302 301 301 302 302 302 302 301 301 302 302 301 300 300 301 303 304 305 304 304 306 306 305 305 304 304 305 305 307 310 309 305 305 305 304 305 305 305 304 304 305 305 306 306 305 306 306 306 307 309 311 315 322 325 327 329 329 328 326 323 322
296 297 297 297 296 296 296 296 296 296 296 296 295 295 297 299 298 300 299 298 300 302 301 302 302 301 301 301 300 300 302 302 301 301 300 301 301 300 300 300 301 303 306 306 304 304 305 306 304 304 304 304 304 306 306 307 306 304 304 304 303 303 303 304 303 302 302 303 303 305 305 305 305 305 306 306 306 308 310 311 314 316 316 315 314 313 313
297 297 296 296 296 296 296 296 296 296 296 297 295 295 296 298 299 298 298 298 299 300 300 302 301 301 300 300 300 300 301 303 302 301 300 300 299 298 298 297 300 302 304 304 303 303 304 304 304 303 303 304 304 306 304 305 302 301 302 303 303 302 302 302 302 301 301 301 302 302 302 304 304 304 304 303 304 304 305 306 307 308 309 309 309 309 308
296 296 296 296 296 296 296 295 296 295 295 294 297 300 297 298 299 297 299 299 298 298 298 300 303 301 301 301 300 300 299 300 301 302 301 299 298 298 297 298 301 303 305 304 304 303 302 302 303 304 303 303 304 305 305 303 301 301 301 302 302 302 301 301 301 300 301 301 301 300 302 301 301 302 303 302 302 302 303 303 304 304 304 305 306 306 305
297 297 296 296 296 296 296 297 297 295 295 296 296 295 296 297 297 297 298 298 299 297 297 297 301 302 301 300 299 298 297 298 298 299 300 300 300 300 300 300 301 303 305 304 302 301 301 301 302 302 304 303 303 304 303 301 300 300 300 300 301 301 300 300 300 300 300 299 298 299 299 300 300 300 301 301 301 301 301 301 301 301 302 301 302 303 302
299 298 297 297 297 298 297 297 297 297 295 295 296 295 295 295 296 297 299 299 298 299 296 296 297 299 300 300 298 297 296 297 297 297 297 298 299 300 302 302 301 302 303 302 301 301 301 301 301 302 304 303 303 302 301 300 300 300 300 300 300 299 299 299 299 299 298 299 299 298 298 299 299 299 299 300 300 300 301 300 300 300 301 300 300 300 300
298 298 298 297 298 299 297 297 297 296 295 295 296 296 296 296 294 296 298 298 299 298 299 296 296 298 298 299 298 297 297 297 297 297 295 295 295 296 301 302 302 302 302 302 300 300 300 301 302 303 303 303 302 301 298 299 299 299 299 299 299 299 298 298 298 299 299 298 298 298 299 298 298 299 298 299 301 300 300 300 299 300 300 299 299 298 298
299 299 299 302 298 298 297 297 297 297 297 297 296 297 300 297 295 298 297 297 298 297 296 295 294 295 297 299 300 299 297 297 297 297 297 296 296 297 300 301 301 301 301 301 300 299 299 302 301 301 301 302 301 299 298 298 298 297 298 298 298 299 298 298 298 298 298 298 298 298 297 297 297 297 298 298 298 299 300 301 300 299 299 298 299 298 298
300 299 298 300 299 299 298 297 298 298 296 295 294 294 297 298 298 296 297 298 297 297 297 296 295 296 298 298 298 297 297 295 295 296 297 297 299 300 301 301 301 301 300 300 299 299 300 300 301 301 301 301 300 298 298 297 297 297 297 297 298 297 298 297 298 297 298 297 298 298 298 298 297 296 298 298 297 298 298 298 297 298 298 300 299 299 298
299 300 299 300 300 300 299 297 298 295 293 294 294 295 298 295 294 295 296 297 298 298 298 296 296 297 297 296 297 298 298 297 293 294 296 297 297 298 299 298 299 300 300 300 300 300 301 300 301 301 301 300 298 297 297 297 297 297 297 297 296 296 296 296 296 297 297 298 298 297 296 296 296 296 297 297 297 297 297 297 297 297 297 297 297 297 296
299 299 301 301 301 301 297 297 297 298 295 295 298 296 297 297 296 297 296 296 296 297 297 296 295 295 295 301 300 299 301 301 298 295 298 299 298 297 298 299 300 300 298 297 297 299 300 299 299 300 300 299 297 297 297 297 297 298 297 297 296 296 296 296 296 296 296 297 297 297 297 297 296 296 296 297 297 297 298 297 297 297 296 296 296 297 296
299 299 299 299 299 299 297 297 296 294 294 297 294 296 298 296 294 295 297 295 296 300 296 294 294 294 294 295 297 300 301 301 301 300 300 300 299 298 299 299 298 299 299 297 298 298 299 300 299 300 300 298 298 298 297 297 297 297 297 297 297 296 297 297 297 297 297 297 296 297 297 297 296 297 298 297 297 297 297 297 297 297 298 298 298 297 296
299 299 299 300 300 301 300 296 294 295 292 295 295 299 299 297 296 298 297 297 297 298 296 296 296 296 295 297 299 299 301 301 302 301 300 300 299 300 299 298 298 299 298 298 297 296 296 297 298 299 298 298 297 298 298 297 297 297 298 297 297 296 296 296 296 296 296 297 296 296 296 296 296 296 296 297 297 297 297 297 297 296 296 296 296 296 296
300 300 301 302 300 300 299 297 297 297 297 299 299 300 299 299 298 297 297 301 296 296 297 296 295 298 300 300 302 300 301 300 300 299 301 301 300 298 300 299 297 298 297 296 296 296 296 297 299 299 298 297 297 296 298 298 297 297 297 298 297 297 297 296 296 296 296 296 296 296 296 296 296 295 295 295 296 296 296 296 295 295 296 295 295 295 295
Wind_Speed
1 4 1 0 2 1 3 4 5 8 7 6 5 3 3 1 1 7 8 7 5 9 7 8 8 8 9 10 13 11 12 15 15 17 20 19 19 20 20 19 19 18 17 14 13 11 10 11 7 1 6 7 7 8 9 10 12 13 12 13 14 14 13 14 14 13 12 12 11 12 12 12 12 13 13 12 11 11 10 11 10 11 11 11 10 10 9
0 1 1 2 2 3 3 4 6 7 6 6 5 3 4 3 2 6 7 6 6 4 8 8 10 9 7 8 8 13 17 17 16 15 16 15 16 17 18 18 17 17 17 15 14 12 12 11 10 10 6 1 8 9 10 11 11 11 12 13 14 14 15 14 13 13 13 12 12 12 12 12 12 12 12 12 11 11 12 11 11 10 11 11 11 11 11
1 1 1 2 2 3 3 4 5 6 7 6 2 3 3 4 1 3 7 5 4 7 5 5 5 6 7 11 15 15 13 15 16 14 15 15 14 14 15 16 17 17 16 16 15 15 14 12 10 9 8 8 3 9 10 12 12 12 13 13 14 14 14 13 13 12 12 12 12 13 13 13 12 12 13 11 11 11 12 12 12 11 11 11 11 11 11
5 2 4 3 2 1 1 3 4 5 6 5 7 4 3 3 5 7 7 6 6 9 9 4 6 9 13 12 13 12 11 14 14 15 15 15 14 15 14 14 16 17 17 17 17 15 14 13 11 10 10 10 7 1 5 10 12 12 13 13 13 13 13 13 13 13 12 12 12 13 12 13 13 12 12 12 12 12 11 12 11 11 12 12 12 11 11
3 3 2 5 6 6 3 3 3 5 3 4 6 3 6 8 4 3 5 3 4 7 8 7 9 11 11 13 12 11 11 11 11 13 13 13 15 14 15 14 14 16 17 16 15 14 13 13 12 12 10 9 9 8 0 4 6 11 14 14 14 13 14 14 14 14 13 13 13 13 13 13 12 12 13 13 13 12 13 12 10 11 13 12 12 12 11
3 2 3 2 5 4 2 2 2 1 1 5 6 3 6 7 8 3 3 3 5 8 10 9 7 8 7 5 6 6 7 8 9 11 11 11 12 14 15 14 15 14 13 14 14 13 11 12 12 11 10 9 9 8 6 3 3 10 11 13 14 15 14 14 14 13 13 14 14 14 13 13 13 13 13 13 13 12 11 11 12 12 12 13 12 12 12
2 2 4 5 2 5 3 6 4 2 1 7 4 2 4 6 9 12 11 9 8 8 6 7 5 4 5 5 5 7 6 8 8 8 9 11 12 12 14 17 17 16 15 15 16 15 14 13 12 12 11 10 10 9 8 3 2 2 2 3 5 9 12 13 13 13 13 13 14 13 13 13 13 13 13 12 13 12 11 12 12 12 12 13 13 12 12
2 2 2 1 3 3 5 4 1 5 1 3 5 2 2 6 7 7 7 9 9 7 7 7 6 4 4 4 7 6 6 7 6 8 8 9 9 9 10 12 15 16 15 16 17 16 14 12 12 10 11 11 10 10 7 6 4 2 4 3 2 1 4 9 11 12 13 13 14 13 13 13 13 13 13 13 13 12 12 11 11 11 11 11 12 12 12
3 3 4 6 2 2 5 2 3 4 2 3 2 1 2 4 5 5 5 7 7 8 7 7 10 5 7 5 5 5 6 7 7 7 8 8 8 6 5 6 8 11 13 14 16 16 16 14 12 11 10 10 10 9 9 7 6 6 3 1 3 3 3 3 6 8 10 12 12 13 13 13 14 14 13 13 13 11 12 12 12 12 12 12 11 11 12
4 3 3 3 2 1 5 2 3 4 4 4 2 2 3 2 4 3 5 6 8 8 8 8 8 9 1 4 6 5 5 4 6 4 6 7 7 6 5 2 2 6 9 11 11 12 15 15 14 12 11 10 9 7 9 8 7 7 6 5 3 1 3 5 5 6 9 11 12 13 13 14 14 14 13 12 12 11 13 13 13 13 12 11 12 12 13
2 1 2 2 2 5 5 2 5 6 4 3 1 3 4 1 6 7 5 7 7 6 8 9 6 4 5 4 5 3 2 4 3 5 6 7 8 8 8 7 5 5 5 8 11 10 9 12 15 14 14 12 8 7 7 8 7 7 7 7 6 6 4 2 2 5 8 10 12 13 14 15 14 14 14 13 13 12 12 12 13 11 11 12 12 11 13
2 3 2 3 3 3 0 3 6 8 7 6 2 5 3 2 10 9 8 7 9 9 8 8 4 3 5 5 6 6 3 3 3 4 6 8 9 10 10 8 8 5 4 6 8 10 11 11 11 11 9 6 6 6 7 6 7 8 7 6 7 6 6 5 4 5 7 10 12 13 14 14 13 13 12 11 12 12 12 11 11 11 11 12 13 12 11
3 5 3 2 3 1 1 3 7 7 4 2 1 6 2 8 9 9 8 8 8 7 8 6 6 2 3 5 7 6 4 4 4 4 3 5 6 9 10 11 9 7 7 7 9 10 10 11 10 10 12 12 9 7 7 7 9 8 7 7 7 7 7 7 6 6 7 8 12 14 14 13 13 12 12 12 12 12 12 11 11 11 13 12 12 13 12
3 4 3 5 4 2 1 3 4 4 2 2 8 1 1 5 8 9 10 10 8 8 8 7 7 9 9 9 7 6 5 4 5 5 5 5 6 6 7 10 9 8 8 9 10 11 11 12 12 12 12 12 12 10 6 6 8 8 8 8 7 7 8 8 7 7 8 8 8 10 12 12 12 12 12 12 11 12 11 11 13 13 12 12 12 12 11
2 2 1 2 3 1 1 5 1 3 1 2 0 5 4 3 5 8 9 7 10 9 11 11 10 11 12 11 11 8 6 5 5 5 4 5 6 7 8 8 9 10 9 10 10 10 10 11 10 9 11 14 13 11 9 10 10 9 9 8 7 7 7 7 7 7 8 9 8 6 9 11 13 13 12 12 12 11 12 12 13 13 13 12 12 12 11
3 1 3 4 5 2 1 4 1 1 1 1 2 3 8 6 6 6 8 9 8 10 9 13 14 13 12 11 10 9 8 7 7 5 5 5 5 6 6 7 7 8 9 9 9 9 9 9 9 9 9 10 12 13 13 12 9 8 7 8 7 7 5 6 7 9 9 8 8 7 8 9 11 12 11 12 12 11 12 12 12 12 11 11 11 12 12
3 6 6 3 2 3 2 2 1 3 2 1 2 2 4 6 6 5 7 10 11 10 11 12 13 14 12 10 9 10 11 10 8 8 6 6 6 6 7 8 6 5 7 10 10 11 9 9 9 9 8 9 11 12 13 11 11 10 8 8 8 7 6 5 5 7 8 9 8 8 8 9 10 11 12 12 11 11 11 12 12 12 12 11 12 12 12
3 5 9 6 1 2 0 1 3 3 2 3 2 3 4 5 6 6 8 10 11 12 10 11 12 12 13 13 11 10 11 10 8 8 7 6 6 6 6 6 6 5 6 7 8 11 13 10 10 8 9 8 10 11 11 11 10 11 11 11 10 8 8 7 7 7 8 9 9 9 9 9 10 11 11 11 12 11 11 12 13 13 12 12 12 12 13
2 3 2 2 1 2 3 3 2 3 2 3 3 3 4 6 8 9 9 10 10 12 12 12 12 15 14 13 12 9 9 11 10 9 9 7 6 6 6 7 6 6 5 6 7 9 12 11 10 10 9 9 9 10 10 10 11 11 11 10 9 9 9 9 9 8 9 7 6 7 8 9 10 10 10 11 12 12 12 13 13 13 12 12 12 13 13
3 6 3 6 5 4 6 4 2 2 2 3 3 4 5 7 8 9 11 10 11 10 11 11 11 15 14 12 12 10 9 10 11 9 8 8 6 6 6 7 5 5 5 6 7 7 9 10 9 10 9 9 9 9 10 10 11 11 10 9 9 9 10 9 9 9 9 10 10 7 7 8 9 10 11 12 12 14 14 14 13 13 13 13 13 13 12
5 5 7 4 4 3 2 2 3 2 3 5 6 5 6 8 9 10 10 9 10 10 13 13 13 15 16 13 11 11 10 9 10 10 9 8 7 6 5 6 5 6 5 5 6 7 8 8 9 10 10 9 9 10 10 10 11 11 10 10 9 9 8 8 8 10 9 7 7 7 7 7 9 10 11 12 13 14 15 13 14 15 14 15 15 14 13
4 5 4 0 3 4 3 4 6 5 4 3 7 7 7 8 10 10 11 12 11 11 12 13 13 15 16 15 11 11 10 8 8 10 10 8 7 6 6 5 6 6 6 5 5 6 8 8 9 10 10 10 9 9 10 11 11 11 12 10 8 7 7 7 8 9 8 8 9 8 7 7 8 9 13 16 15 13 12 17 21 21 18 16 16 14 14
5 6 6 4 4 3 7 8 7 5 4 4 7 8 8 9 10 11 12 13 13 13 12 11 13 14 15 16 13 11 10 9 9 10 10 9 7 6 5 4 5 5 6 5 4 4 6 7 8 9 10 9 10 10 11 12 13 13 12 10 8 7 7 6 8 8 9 9 9 8 7 7 7 8 8 10 15 19 19 17 20 22 21 22 21 20 17
4 4 4 4 4 6 6 5 5 6 6 7 8 7 7 8 10 11 12 12 13 13 13 14 14 15 15 15 13 13 11 11 11 10 9 9 8 7 5 5 5 4 5 5 5 6 5 6 7 8 9 9 8 9 11 13 12 12 12 10 9 9 9 9 9 9 8 9 9 9 9 7 7 7 8 8 9 13 16 15 16 20 21 22 22 20 21
5 3 5 6 6 7 7 5 5 6 7 6 6 7 7 8 10 11 13 12 11 12 13 14 16 14 13 14 13 13 11 11 10 9 9 7 8 5 4 3 3 4 4 5 5 6 5 5 6 8 10 9 8 10 12 12 12 12 12 11 10 10 9 10 9 10 10 9 8 8 9 8 7 6 7 8 10 10 10 7 7 10 15 19 20 19 19
5 4 2 0 0 4 4 4 6 6 5 4 6 8 9 10 11 10 9 10 11 11 12 13 15 15 13 12 11 12 11 11 10 10 7 6 5 4 4 4 4 3 3 3 4 4 5 5 6 7 9 10 9 11 12 11 11 11 11 11 11 9 9 10 10 8 8 9 8 8 8 8 8 7 8 9 10 10 9 8 8 8 8 12 15 16 16
5 5 1 4 6 7 4 4 6 5 6 6 6 7 8 8 11 8 7 8 9 10 12 13 13 13 13 11 10 12 12 11 9 8 6 6 6 6 5 3 3 3 3 3 2 4 6 6 6 7 9 9 9 11 12 12 12 11 10 11 10 13 19 14 8 9 9 8 9 10 9 8 8 7 8 8 9 9 9 10 11 12 12 11 12 15 17
5 4 5 6 6 5 5 5 5 4 6 7 7 7 8 8 7 7 8 9 8 9 10 10 11 13 13 12 11 10 11 12 11 9 8 7 7 5 4 3 2 2 2 1 1 3 4 4 6 7 8 8 10 11 11 12 12 12 11 10 10 9 9 11 9 9 9 9 8 9 10 9 8 8 7 5 5 6 7 8 10 11 11 11 8 7 12
6 7 7 9 10 8 4 3 4 5 6 6 6 6 7 8 8 8 7 7 9 10 10 11 12 12 12 12 11 11 9 10 9 9 8 7 3 4 3 2 2 1 1 1 1 2 5 6 8 8 8 8 9 11 11 11 10 10 10 9 9 8 8 8 9 8 9 9 8 9 9 10 9 8 5 3 3 2 3 3 4 4 6 2 1 1 3
7 5 4 6 8 5 4 5 5 6 6 5 5 7 7 7 8 8 9 9 8 9 10 11 11 11 12 11 11 11 11 10 10 8 5 1 4 3 3 2 2 1 1 2 3 4 6 7 9 10 10 9 10 9 10 10 10 10 10 10 9 8 8 9 9 9 9 9 9 11 9 9 8 7 7 6 7 8 9 9 9 10 11 11 10 11 12
4 2 4 4 3 2 4 6 5 5 5 5 4 6 7 6 7 8 9 9 9 9 11 11 12 13 13 12 11 10 10 8 6 3 4 4 2 3 2 3 2 2 3 4 5 5 5 8 8 9 10 11 10 10 10 10 10 10 9 8 8 12 16 17 12 9 9 10 9 8 8 8 8 8 9 9 7 6 6 6 7 8 9 9 9 10 11
1 2 2 3 3 4 4 4 4 4 4 4 4 6 6 8 10 9 10 10 10 11 11 11 12 13 12 12 12 8 6 4 4 6 5 4 3 3 3 3 3 4 3 5 6 5 5 6 8 9 10 10 11 11 10 9 10 10 10 11 10 10 10 16 10 10 9 9 9 9 8 9 8 9 10 10 10 10 10 10 11 11 11 12 11 12 12
2 1 2 2 3 3 5 5 4 5 3 4 4 4 6 6 6 7 7 10 11 11 10 11 11 12 12 11 10 11 5 4 3 5 6 4 4 4 3 2 2 3 4 5 4 5 5 8 8 9 9 8 10 11 11 10 10 9 10 10 9 10 11 10 11 10 9 9 8 9 8 8 9 10 11 11 10 9 9 10 11 12 13 12 13 12 11
5 6 7 6 6 6 6 5 3 3 4 3 3 4 5 6 6 7 7 9 9 10 9 10 11 12 11 10 10 11 12 8 2 6 7 6 5 5 4 4 3 2 3 4 5 5 5 7 8 8 8 8 9 9 10 11 9 9 10 9 9 9 9 8 9 8 8 9 9 11 10 8 8 9 10 11 10 9 10 10 11 11 11 11 11 10 10
5 5 5 5 5 4 4 4 3 3 3 3 4 4 4 5 6 7 10 9 8 9 10 10 10 10 10 9 9 10 10 11 9 7 8 5 4 4 2 3 4 4 5 6 7 6 7 8 8 8 8 9 9 9 9 10 9 8 9 10 10 9 9 9 8 8 8 9 9 9 9 9 8 9 11 12 11 10 11 11 11 10 10 11 10 7 7
3 4 3 3 4 4 4 4 3 3 3 3 4 4 4 5 6 6 8 8 7 8 9 9 9 8 8 9 10 10 9 8 10 8 6 6 5 3 4 5 5 5 7 6 6 7 8 8 14 17 10 8 8 9 10 9 7 7 8 8 8 9 7 8 7 8 7 7 8 8 8 10 10 8 8 10 11 11 11 11 11 10 10 10 8 5 5
5 6 6 5 4 4 4 4 4 3 3 3 3 3 4 4 5 5 6 7 8 8 7 7 8 8 8 7 7 7 8 8 7 6 5 4 5 5 5 5 5 6 7 6 7 7 8 8 15 18 11 8 8 9 10 14 6 6 7 7 7 8 8 7 8 7 7 7 7 7 9 9 8 8 8 9 9 10 10 11 11 10 9 7 5 6 6
5 6 6 6 5 5 5 5 3 3 2 2 2 2 3 4 4 5 5 6 7 8 8 7 7 7 7 5 6 7 8 8 8 8 7 5 4 5 7 8 7 6 6 6 6 6 6 11 16 11 7 7 7 7 10 13 12 7 5 6 7 8 8 8 8 8 8 8 8 7 8 8 9 10 10 10 11 10 10 10 10 9 7 6 6 7 7
3 3 3 4 4 4 3 3 3 3 3 2 3 3 3 3 4 4 5 5 6 7 7 7 7 6 7 7 6 5 7 7 7 8 8 8 7 7 8 7 7 7 5 5 6 6 7 11 9 7 7 7 8 8 9 11 11 5 6 5 7 7 8 8 8 9 9 9 8 8 9 9 10 11 11 12 11 12 12 5 4 8 8 7 6 6 6
5 6 7 5 4 4 4 4 4 4 3 3 2 2 3 3 3 3 4 4 5 6 7 7 6 5 6 6 6 6 5 5 6 7 7 6 6 5 5 6 8 7 7 10 6 5 11 16 9 5 6 6 7 5 7 9 9 5 5 6 7 8 8 8 8 8 9 9 10 12 9 9 9 11 10 11 11 12 11 12 12 9 5 6 6 6 8
6 6 5 5 5 4 4 4 4 4 3 2 2 2 2 2 2 2 4 4 4 4 5 5 5 5 5 6 6 6 6 5 4 5 5 5 5 5 5 6 8 8 8 7 8 8 11 11 9 7 6 6 6 8 5 8 7 5 5 6 7 8 8 8 8 8 8 10 10 9 10 9 8 12 11 11 12 12 11 12 11 11 10 8 6 6 8
5 5 5 4 4 5 4 4 3 2 2 2 2 1 2 2 2 3 3 3 3 4 4 5 6 6 5 5 5 6 7 7 6 5 5 7 8 7 6 6 7 7 12 10 10 9 7 7 8 8 7 5 6 12 11 6 5 5 5 6 7 7 8 8 8 8 8 7 8 9 9 9 10 9 10 11 12 12 12 12 11 11 11 10 9 7 6
4 6 7 7 5 5 5 4 5 5 3 2 2 2 2 2 3 2 3 3 3 3 4 4 5 6 6 5 6 6 6 6 7 7 5 5 7 7 7 6 6 7 14 8 8 6 7 6 6 6 13 11 9 13 12 7 6 6 6 7 7 8 8 9 8 8 9 10 10 10 10 9 10 10 10 10 10 10 11 12 12 11 11 11 10 10 8
4 5 6 6 6 6 5 5 4 4 3 2 2 2 1 2 1 1 2 2 3 3 3 3 3 4 6 5 6 6 6 6 6 6 5 5 5 6 6 5 6 9 16 9 7 7 7 6 7 11 15 16 16 14 8 6 7 7 7 7 7 7 7 8 9 9 9 9 9 9 10 10 9 9 10 11 11 10 10 11 11 11 11 11 11 10 10
5 5 8 8 7 6 6 6 6 6 5 2 1 1 1 1 2 2 0 2 2 3 3 3 3 3 3 4 5 5 4 5 4 6 6 7 6 7 7 8 7 7 10 13 7 8 7 7 13 18 14 16 15 14 7 7 7 8 7 7 7 8 8 9 10 8 9 9 8 8 9 9 9 9 9 10 11 11 10 11 10 11 12 12 11 12 11
4 3 4 6 7 7 7 7 5 4 3 3 1 1 1 0 1 0 2 3 1 1 1 2 2 3 3 3 3 3 4 5 6 5 5 4 4 5 6 8 6 8 13 13 8 8 7 16 18 17 17 16 14 8 7 8 8 7 8 8 8 9 8 8 9 9 9 9 9 8 8 8 9 10 10 10 11 11 11 12 11 9 11 13 12 11 9
1 3 2 6 5 5 4 4 3 4 3 2 2 4 1 1 1 1 2 2 2 1 1 1 2 3 3 3 4 3 4 4 4 5 5 4 5 6 8 10 10 12 10 7 8 8 9 10 13 17 16 16 14 7 6 7 7 7 8 8 7 7 7 7 8 8 9 9 11 11 12 12 10 9 11 11 13 12 10 9 10 10 8 10 12 11 10
1 4 6 5 4 5 3 3 4 4 3 4 4 2 2 2 2 1 1 2 1 0 0 1 1 2 2 2 2 3 3 3 3 5 5 5 5 5 5 4 7 11 11 11 11 11 18 18 18 16 16 15 9 7 7 7 7 7 8 7 7 7 8 7 8 8 9 9 9 8 8 9 10 9 10 10 10 11 12 11 11 10 7 11 14 11 6
3 3 3 2 3 4 3 3 3 2 3 3 2 2 4 4 3 2 2 2 1 0 0 0 0 1 1 0 1 2 3 2 2 2 5 4 5 6 6 7 11 11 8 7 7 7 14 18 17 17 15 11 7 7 7 7 7 8 8 7 7 7 7 8 8 8 9 10 9 9 9 10 10 9 10 10 10 10 11 11 11 10 9 11 14 9 7
3 2 1 2 1 1 2 5 2 3 2 2 3 4 4 4 4 1 2 3 4 2 2 1 1 1 2 3 3 2 3 3 3 3 4 5 4 5 6 6 7 11 11 7 7 7 10 15 14 14 11 7 7 7 7 7 7 7 7 8 8 7 9 9 11 12 10 10 10 10 10 9 9 12 11 10 10 10 10 10 10 13 18 12 10 9 9
2 2 3 3 3 1 1 5 5 1 2 2 4 5 4 3 3 2 2 3 4 3 2 0 2 3 3 3 4 3 2 2 2 5 4 4 4 6 8 6 7 8 8 8 6 6 6 5 6 8 9 8 7 6 7 7 7 8 9 8 9 8 9 10 9 8 10 9 9 9 9 9 10 10 10 10 10 10 10 10 10 9 9 9 9 9 10
2 1 3 4 3 1 3 7 5 0 0 2 5 5 4 3 3 2 1 4 1 1 1 2 2 2 2 2 3 3 2 4 4 4 5 4 4 3 6 8 5 6 6 5 6 6 6 7 8 10 10 8 7 7 9 11 8 7 8 9 9 9 10 9 9 9 9 10 9 8 9 9 9 10 10 10 10 10 10 9 9 9 9 9 9 9 10
Wind_Direction
190 192 199 311 19 328 305 311 323 322 330 337 357 305 277 224 184 248 292 316 323 295 332 352 4 2 23 21 9 11 11 14 9 15 21 13 11 10 14 13 9 6 6 4 5 17 24 16 8 288 195 192 198 197 197 191 188 191 186 187 192 194 197 200 202 201 201 202 204 205 207 207 209 210 210 211 210 209 208 209 210 212 214 214 214 217 221
31 339 9 24 45 343 358 335 316 310 318 316 313 321 334 350 249 249 274 297 289 354 2 12 356 355 27 32 19 24 23 13 6 8 19 12 10 11 8 7 7 3 359 356 359 7 15 19 15 5 352 228 183 184 189 186 189 187 182 191 192 196 199 200 200 199 199 200 200 202 204 206 209 210 212 212 211 212 213 212 213 211 213 215 215 215 217
309 271 2 29 44 40 347 289 270 301 315 297 304 330 319 342 307 323 328 334 351 12 354 22 5 9 27 35 32 27 20 16 9 11 14 10 6 5 7 5 6 1 355 353 357 2 5 7 11 9 351 338 294 186 182 184 188 185 185 190 194 198 201 200 200 200 199 202 201 203 204 206 207 208 210 210 212 214 214 214 215 213 212 215 216 215 215
321 326 9 335 31 44 278 313 347 353 358 7 345 334 3 22 333 310 326 21 3 334 343 11 26 27 34 28 26 23 21 14 14 13 8 8 2 358 0 6 6 3 352 351 352 354 356 357 3 5 359 350 344 41 165 181 182 179 186 189 195 197 199 200 199 199 200 201 204 206 205 208 207 206 207 208 211 212 213 215 216 214 216 216 216 215 216
275 282 336 349 4 19 28 6 356 327 323 337 342 340 39 38 327 1 20 40 354 332 348 19 23 31 31 35 20 15 17 22 18 14 9 3 360 357 353 1 10 4 353 342 338 345 351 352 357 356 352 348 346 326 332 147 150 180 184 189 192 196 199 200 200 198 197 200 202 204 207 207 208 207 207 209 210 210 213 214 213 215 218 217 217 216 216
254 291 316 12 38 24 246 217 234 240 37 15 27 28 1 11 24 6 338 4 347 360 8 15 31 27 33 29 33 27 17 10 16 19 12 5 0 355 352 357 1 1 347 338 334 336 341 345 351 348 347 347 334 325 311 308 158 162 180 191 192 196 198 201 200 197 198 200 201 205 205 206 207 208 208 210 210 210 212 211 214 217 217 219 219 217 216
272 311 11 17 324 236 247 291 273 273 134 57 348 238 58 29 18 13 7 358 2 3 357 356 12 71 79 55 58 26 18 19 16 16 8 7 6 358 351 356 353 348 342 335 333 335 342 344 344 343 346 346 341 334 332 14 42 35 55 162 194 202 202 202 199 198 199 200 203 205 205 206 207 209 210 211 210 210 210 212 213 215 216 218 219 219 218
38 38 74 91 245 226 254 247 360 329 116 43 45 30 113 45 29 13 358 341 342 347 348 344 323 198 150 116 48 31 12 8 360 11 5 356 3 359 357 359 341 342 339 337 332 327 327 334 341 343 342 340 342 335 325 349 5 106 149 149 150 160 214 211 206 201 199 200 202 203 204 205 207 209 210 209 210 209 210 213 215 215 218 218 219 220 219
199 195 160 212 309 341 347 6 356 12 357 336 61 234 283 66 25 14 338 326 326 339 344 340 332 299 199 26 36 15 8 7 2 352 351 346 349 344 345 353 338 330 332 334 325 321 324 331 335 336 339 344 341 335 335 350 13 23 24 151 194 184 188 201 215 211 207 205 204 204 205 206 208 209 209 210 212 207 211 213 213 214 216 215 217 218 218
137 184 278 349 26 250 264 237 270 296 286 284 188 122 275 28 3 358 350 329 327 335 337 342 344 332 140 13 358 355 349 353 354 332 321 322 326 332 338 324 336 338 331 320 311 317 321 326 329 331 338 343 341 341 341 346 5 24 23 16 353 217 213 211 213 213 208 206 207 207 207 209 209 209 209 211 212 205 209 211 214 214 212 216 215 215 216
85 109 194 208 172 240 209 252 284 290 295 292 224 141 266 141 358 345 344 321 324 332 336 333 340 5 36 351 323 314 332 314 328 332 327 328 322 326 328 337 1 341 317 311 314 317 318 325 328 329 329 334 336 351 344 342 357 15 18 6 356 351 339 315 258 242 227 216 212 210 211 212 209 208 208 208 209 206 211 212 217 214 213 216 217 215 216
174 141 162 241 204 241 287 300 310 315 318 336 5 313 267 41 348 333 330 322 324 327 335 330 339 25 357 328 307 315 298 280 273 302 331 328 324 326 327 330 344 341 317 319 332 336 338 331 320 313 305 298 320 341 346 333 360 10 4 344 328 311 307 300 285 264 250 228 216 214 214 214 211 210 209 209 209 208 210 211 214 212 214 215 217 219 214
210 201 252 327 302 293 352 307 307 311 316 47 96 230 258 334 331 331 325 322 318 324 329 335 316 305 283 262 274 285 283 273 280 271 284 298 308 313 322 324 331 338 342 339 343 343 336 330 326 325 332 332 341 357 353 340 356 356 343 332 324 316 298 292 285 276 268 245 226 218 214 212 210 210 207 208 208 207 210 211 213 214 214 213 217 220 216
199 208 188 229 242 228 284 283 286 270 354 227 220 204 279 290 329 332 335 325 329 332 325 323 311 314 314 303 298 295 292 274 263 264 275 294 303 291 303 313 325 337 341 339 340 344 343 337 338 339 336 333 333 343 338 340 347 336 333 324 315 310 308 299 288 276 271 264 239 225 216 210 208 211 210 206 206 207 209 210 213 216 214 214 217 219 221
54 52 151 346 294 250 41 321 5 14 114 220 250 309 315 349 320 327 320 326 314 328 316 314 311 309 313 314 306 297 286 277 268 266 279 290 298 313 320 321 324 333 340 341 337 338 338 341 336 332 333 336 336 333 329 342 341 337 329 318 306 301 305 311 302 284 270 270 264 237 220 210 208 211 205 203 205 205 206 210 214 216 215 214 216 219 221
163 157 172 206 207 179 15 54 142 276 264 271 5 358 312 328 328 318 313 305 307 308 306 308 309 304 303 304 306 308 299 279 275 265 266 266 272 294 293 294 301 327 329 329 330 329 333 335 335 331 334 332 331 330 333 338 329 327 321 314 310 311 319 318 314 307 297 279 268 251 227 212 207 209 206 204 203 201 204 207 211 215 217 215 216 220 220
152 196 216 224 171 139 141 118 190 245 242 127 280 283 275 301 305 294 293 298 302 300 298 297 295 299 294 291 299 302 298 287 274 275 266 267 275 277 289 293 301 309 321 323 323 322 329 332 335 334 331 328 324 327 325 321 326 323 318 311 310 311 310 297 288 288 288 286 271 256 239 217 209 207 206 201 205 205 203 207 211 214 216 212 215 218 220
270 251 234 245 194 122 251 190 232 227 228 261 238 255 286 278 275 278 283 288 290 295 296 292 292 285 290 295 294 295 295 290 276 273 276 270 264 270 283 291 295 303 308 311 320 324 323 330 332 333 328 327 322 321 317 318 321 326 322 318 316 314 311 303 291 279 273 268 260 248 238 222 216 209 205 201 205 204 205 208 209 213 213 212 216 217 220
33 286 349 112 199 275 244 247 230 214 209 253 251 264 249 272 282 285 278 275 281 286 289 282 281 285 286 286 285 285 285 287 282 268 269 264 255 264 280 281 290 301 310 310 315 323 319 323 328 326 327 325 317 316 320 321 323 324 319 314 315 314 312 308 300 287 273 266 261 246 230 224 215 210 205 203 205 206 205 209 212 214 213 212 217 217 221
170 238 271 299 312 285 275 246 179 219 249 251 246 251 267 273 277 273 276 279 281 283 284 284 285 285 284 279 280 278 274 278 279 274 262 264 260 253 254 271 277 282 287 293 306 313 314 316 319 317 321 323 319 316 319 323 326 324 320 322 317 312 307 303 296 289 283 279 280 264 239 222 215 211 207 206 206 207 206 208 208 212 211 213 216 216 220
265 299 286 275 286 301 320 163 195 243 284 299 301 293 288 284 280 282 280 276 275 277 279 285 284 283 280 272 265 267 269 270 275 274 257 252 248 245 257 262 258 268 273 289 301 301 301 309 314 313 317 320 322 317 321 323 320 317 319 319 309 297 295 295 290 281 271 277 280 278 258 231 222 213 206 207 212 215 215 208 206 208 209 213 213 216 215
284 230 252 114 354 301 284 264 269 281 271 283 295 299 297 292 294 290 288 287 281 275 274 278 278 276 279 276 265 261 259 257 264 272 270 258 255 247 239 243 250 259 270 271 284 298 301 310 312 313 320 322 322 319 321 323 319 318 320 318 311 304 295 292 289 286 289 292 286 280 266 248 232 230 225 215 208 214 220 214 213 212 206 210 212 211 215
241 244 236 194 185 238 251 260 275 279 284 294 293 292 293 294 292 294 294 293 294 292 286 282 284 280 275 273 267 260 260 266 262 257 260 259 253 252 242 230 245 252 268 280 286 290 297 307 310 315 319 321 321 323 326 321 319 317 318 317 318 318 312 305 296 291 288 283 284 286 278 259 240 231 230 239 234 226 223 216 211 215 213 220 220 214 210
255 225 226 194 166 214 250 244 252 274 286 285 280 277 279 286 293 297 296 297 293 292 293 293 295 293 283 271 263 260 263 265 267 262 250 247 247 249 247 218 231 251 268 284 293 294 296 299 309 317 315 318 317 322 326 322 319 314 315 319 320 322 320 311 303 297 286 284 286 290 289 270 245 232 230 227 232 238 237 239 224 212 218 222 222 218 217
218 215 207 213 209 236 247 260 272 271 273 271 278 291 293 295 298 301 305 306 297 293 294 296 297 298 289 274 262 256 255 257 254 250 247 242 246 243 236 228 221 225 248 269 281 287 286 289 310 316 313 315 320 324 326 323 320 317 316 318 319 315 312 310 308 309 305 293 283 286 289 287 267 244 229 222 224 233 244 250 272 265 243 233 227 226 224
213 241 207 182 280 257 271 308 294 273 268 275 294 300 301 304 303 311 306 302 297 296 297 297 297 299 302 286 267 258 251 249 252 256 252 245 251 261 259 234 220 215 238 252 272 283 284 304 321 317 316 318 326 328 324 321 319 314 314 314 311 309 312 315 315 316 320 315 302 289 283 281 282 263 240 227 227 228 224 225 255 255 245 239 242 245 245
243 247 282 321 297 281 262 237 258 267 287 297 292 290 295 296 305 303 290 290 294 298 302 301 295 295 296 290 279 264 254 254 254 250 241 239 230 227 237 220 213 235 243 254 258 290 314 325 319 317 316 321 327 326 321 319 319 315 316 317 312 316 324 328 326 322 316 315 314 308 297 287 280 275 262 250 238 231 222 219 220 224 231 236 229 216 225
235 232 173 205 241 249 256 234 231 271 293 294 297 304 304 302 298 299 303 307 309 308 303 299 300 301 300 299 292 277 265 256 251 245 239 232 223 220 190 195 215 219 238 305 295 315 335 319 312 314 318 323 326 323 317 315 314 313 316 314 316 313 317 326 325 321 315 312 307 300 302 294 285 271 271 282 281 266 259 239 221 222 234 231 230 217 231
240 231 209 216 233 244 260 309 311 297 293 293 298 303 310 315 314 310 309 307 308 309 308 309 307 303 294 292 288 277 263 254 241 237 234 225 203 154 176 190 206 197 162 19 337 348 340 327 320 318 318 324 321 319 317 314 308 307 315 320 315 314 318 320 319 310 308 303 298 300 295 291 280 274 255 196 157 146 169 176 196 212 218 217 29 295 219
238 226 207 227 239 249 273 285 282 288 288 296 311 310 311 314 318 319 316 316 315 312 309 310 308 305 303 292 277 269 261 246 240 232 216 162 127 135 134 164 161 131 105 60 39 14 343 328 323 322 322 321 323 320 320 312 309 309 314 319 313 313 315 316 313 312 311 305 304 301 294 282 266 241 229 221 211 201 204 210 208 204 207 205 197 206 204
234 238 226 247 246 239 223 251 267 274 286 294 304 307 311 317 319 320 319 317 316 317 317 319 317 313 312 311 290 265 260 251 238 184 116 104 83 83 77 86 87 45 20 28 34 10 343 334 321 318 316 317 323 323 321 315 314 314 317 318 315 324 325 325 322 318 309 309 308 308 299 289 261 240 233 236 238 233 223 231 235 237 231 226 219 223 221
263 1 330 261 240 243 265 268 269 277 280 290 314 318 314 318 321 321 321 321 321 322 321 324 326 324 319 321 319 279 257 219 142 118 105 86 68 45 49 47 69 74 62 36 18 356 340 333 327 318 312 318 325 324 324 319 317 322 326 329 327 326 325 331 328 324 318 315 315 312 310 301 273 243 245 240 237 231 224 215 217 217 218 217 217 221 226
175 257 299 276 267 265 266 266 254 267 269 290 292 290 300 300 302 313 314 318 325 327 332 331 329 326 327 329 340 347 307 178 152 110 96 93 77 53 21 43 38 66 75 54 13 342 332 334 322 310 311 325 325 323 326 322 321 326 329 324 323 325 328 332 325 325 323 321 317 315 310 309 302 277 252 246 242 244 241 237 230 227 223 221 222 224 221
189 206 216 198 181 206 230 257 240 249 267 270 276 293 300 307 308 311 315 323 326 329 331 329 328 331 330 341 347 7 0 353 56 104 94 75 59 47 22 18 4 28 86 49 10 349 332 327 314 312 322 335 327 328 325 321 324 333 330 324 324 320 329 327 331 332 330 331 326 321 316 308 302 292 279 261 248 238 239 237 239 240 242 237 235 224 208
202 223 210 208 200 210 205 204 223 239 263 281 301 299 296 300 311 312 325 335 330 325 325 325 329 331 335 343 2 12 14 5 358 37 65 58 57 36 23 15 15 31 39 27 0 344 332 318 309 321 342 337 332 335 322 316 332 337 331 329 327 330 330 333 336 336 338 335 328 323 319 315 306 302 295 281 260 245 237 238 239 238 240 240 238 216 206
172 191 202 217 220 216 211 209 213 220 234 248 257 272 291 301 312 317 324 322 317 321 327 329 331 331 343 2 8 8 14 11 4 7 41 40 26 16 26 39 28 34 22 7 349 335 334 320 335 347 348 340 336 335 321 326 341 343 331 332 331 334 330 340 338 341 342 337 334 329 316 318 319 314 303 290 272 251 241 240 238 236 237 237 237 222 215
185 178 195 204 212 201 197 206 205 214 226 238 256 280 297 309 310 310 316 319 323 325 327 328 341 346 352 2 4 7 11 9 0 353 3 26 18 15 21 34 33 27 15 6 346 341 332 330 346 353 351 340 335 331 325 336 353 353 330 327 330 335 339 345 347 346 346 340 331 333 335 331 338 340 336 322 284 256 245 241 241 241 232 218 196 194 187
197 191 189 198 199 195 199 205 203 202 219 259 284 280 293 295 307 315 320 318 322 326 333 339 345 345 350 356 14 20 12 6 2 355 354 7 23 31 31 27 22 17 17 6 346 341 327 347 352 351 332 340 326 335 327 340 356 354 326 343 348 348 350 358 353 355 354 347 342 345 346 343 352 359 357 348 336 300 248 236 243 236 220 196 187 182 178
201 218 218 206 190 188 191 208 203 204 199 220 264 274 286 309 314 324 323 322 319 331 336 336 337 352 1 3 14 18 19 11 4 1 1 357 11 29 31 16 4 355 341 351 359 340 349 357 352 345 342 337 327 336 333 345 359 352 335 348 354 358 0 3 359 2 3 356 349 354 359 3 6 11 12 6 358 353 338 326 190 191 198 190 163 150 136
200 197 203 196 195 197 180 197 201 207 222 214 215 252 289 311 319 322 318 323 325 342 337 331 342 2 4 2 1 8 11 16 14 8 0 352 2 11 22 11 2 343 347 9 6 347 4 4 352 338 332 334 322 320 344 357 5 355 343 357 9 8 7 7 5 7 7 6 3 358 355 7 19 22 21 17 14 8 6 2 2 1 21 53 68 81 89
206 202 206 196 199 180 185 184 198 215 218 224 234 256 272 274 292 321 322 320 320 340 335 334 339 12 13 7 2 360 1 7 16 22 5 357 6 7 14 16 352 344 341 9 9 8 6 5 359 351 332 344 314 358 357 4 3 350 357 11 20 16 15 15 17 10 12 14 8 2 355 351 9 35 32 29 21 19 14 11 9 15 12 9 39 82 96
223 205 200 198 193 188 193 197 185 186 222 229 249 273 284 290 301 299 298 315 337 346 346 338 6 30 27 13 9 13 11 1 358 5 21 20 10 5 13 10 350 340 1 13 10 360 353 346 352 356 354 353 354 8 14 9 360 8 12 17 29 22 24 23 20 17 14 18 15 6 1 5 10 22 36 41 35 27 20 17 19 16 17 13 3 10 59
241 209 201 199 198 192 186 183 183 192 209 248 252 248 269 305 307 310 329 342 3 357 357 338 3 19 20 13 11 13 9 356 2 358 5 24 18 7 3 355 341 356 13 14 11 354 356 349 351 348 14 15 13 15 17 8 6 10 25 28 33 31 31 29 25 20 22 26 27 18 8 11 17 24 30 37 44 43 36 29 26 22 21 22 21 6 6
260 228 212 195 196 190 180 180 181 176 177 222 220 231 269 301 299 320 336 18 16 16 5 346 353 10 18 20 19 15 3 2 2 357 355 358 3 2 344 356 354 2 12 17 10 3 349 357 0 8 15 21 20 19 14 7 16 19 22 30 32 32 30 32 30 28 27 24 27 27 18 15 17 25 34 41 37 32 42 53 41 28 28 26 23 20 2
281 232 215 203 193 177 182 183 175 183 201 202 211 277 268 268 334 340 71 73 41 25 15 6 6 19 17 26 29 9 359 354 359 2 8 1 358 353 336 6 5 8 11 18 14 8 350 7 17 15 15 19 21 19 14 18 22 27 24 27 38 37 35 38 39 31 30 27 26 26 26 17 9 24 35 43 47 46 36 32 47 58 45 35 31 27 14
299 278 235 196 189 194 192 187 190 174 159 174 220 284 289 359 355 55 116 116 102 37 352 2 38 31 16 12 15 8 1 3 2 2 5 334 338 326 337 7 9 19 20 18 16 15 1 14 19 19 17 20 18 12 13 22 30 31 31 28 33 42 42 36 40 42 38 35 32 30 29 26 22 23 30 38 48 46 41 44 39 28 57 65 46 29 28
259 97 332 290 245 215 183 182 184 156 145 158 191 240 279 86 82 116 130 105 104 83 30 18 38 37 18 8 355 344 348 352 5 350 344 332 339 354 9 14 16 19 21 14 15 16 18 17 20 21 21 18 13 3 10 20 26 32 33 33 30 34 35 37 41 45 44 44 43 41 40 39 38 30 30 38 45 48 42 36 44 39 20 50 70 44 18
190 148 180 224 279 305 269 175 166 166 171 188 191 193 144 123 106 106 138 131 115 78 3 348 29 56 37 11 345 347 342 326 353 358 331 332 330 329 345 8 23 25 23 19 17 20 24 23 23 23 23 19 9 5 8 16 26 29 30 33 35 34 34 38 39 43 47 43 41 38 37 40 36 37 38 37 41 49 51 47 46 38 21 52 60 51 25
226 193 173 141 203 233 264 237 181 173 199 209 167 155 150 135 111 116 139 138 134 241 260 326 329 348 326 328 21 335 338 356 353 315 316 333 340 347 352 15 23 24 23 17 13 8 27 24 19 22 18 13 8 9 12 18 30 37 33 32 29 33 39 42 42 42 49 52 45 40 40 43 41 39 42 46 47 45 48 53 50 51 39 47 66 69 52
248 178 138 167 179 110 288 285 257 222 211 173 166 157 138 119 107 105 133 152 162 177 272 288 301 314 328 328 329 345 327 329 321 323 326 338 349 6 10 11 22 27 29 24 17 13 18 27 23 18 11 358 2 14 15 21 30 37 40 36 36 32 35 39 47 47 52 54 52 48 44 41 41 48 49 46 49 49 50 51 54 52 52 55 64 64 61
356 111 115 90 54 39 336 264 242 211 231 189 163 152 138 138 153 155 153 156 142 167 233 312 333 342 13 356 340 346 3 335 331 3 345 348 6 18 25 22 20 29 25 22 12 14 1 1 21 21 8 9 9 14 26 28 28 40 43 44 43 42 41 39 42 43 47 47 51 53 50 46 48 48 46 44 46 50 47 47 49 48 48 51 53 55 52
36 71 94 75 66 28 284 267 271 176 215 128 140 136 143 158 147 132 190 176 139 146 159 108 55 16 46 35 24 11 8 32 17 5 21 15 21 9 13 26 20 21 13 12 17 18 21 21 26 33 34 20 9 15 29 34 30 32 39 43 44 45 46 45 46 48 44 42 42 46 49 50 47 50 50 50 50 50 51 49 48 48 50 48 49 49 52